International Virtual Aviation Organisation

Russian Federation and Kazakhstan MCD

 

Карточка аэропорта UATT

Внимание!
Информация на этой странице в стадии наполнения.
Если вы не увидели какой-то информации, или заметили неточность - пожалуйста сообщите нам!
Спасибо!
Команда RU-STAFF
Название аэропортаАктобе
Название аэропорта (англ.)Aktobe
Превышение738 ft. (224.9 m.)
Координаты50°14.748', 57°12.402'
Высота перехода2710
Эшелон переходаFL40
Коды ответчика3440-3447, 3540-3547
Зона ОрВДАктобе РПИ (UATT)
Данные METARUATT 242300Z 16007MPS CAVOK 07/04 Q1011 R13/29//50 NOSIG RMK QFE739/0985
Проноз погоды (TAF)UATT 241700Z 2418/2518 15006MPS 9999 BKN011 TX06/2418Z TN00/2515Z TEMPO 2418/2503 3100 -RA BR OVC011 FM250300 18007MPS 3100 -SHSNRA BR BKN011CB TEMPO 2503/2515 24011MPS
NOTAMshow/hide NOTAM
AWOS   TABLE

Информация о ВПП

ВПП Длина ВПП (м.) Покрытие Курс ВПП Частота ILS
133202Бетон135111.7
313202Бетон315111.7

Диспетчерские позиции




Спутниковое изображение